GEESAT 6-06

导读

GEESAT 6-06是中国吉利时空道宇设计建造运营的低轨卫星,属于GEESATCOM吉利星座06组卫星,于北京时间2025年9月24日在山东日照海域通过捷龙三号运载火箭发射升空,卫星顺利进入预定轨道。作为吉利星座一期组网完成的收官卫星,它将为全球提供低延迟、高可靠的卫星物联网通信服务。

基本信息
目录编号:
65718
目录名称:
GEESAT 6-06
国际标识:
2025-214G
轨道中心:
EARTH
卫星名称:
GEESAT 6-06
卫星全名:
GEESAT 6-06
卫星状态:
在轨 (已飞行261 天)
发射日期:
2025-09-24 UTC
国别 :
中国 (CN)
星等 :
--
轨道信息
数据来源 国际轨道数据 AOE轨道数据
星历时间 2026-06-12T12:07:30+0800
16小时前
查看轨道信息
2026-06-10T12:00:00+0800
2天前
查看轨道信息
半长轴 6997.642km 6997.679km
偏心率 0.0010126 0.0009883
轨道倾角 49.993° 49.990°
近地点辐角 217.862° 208.990°
升交点赤经 329.351° 338.638°
平近点角 142.160° 237.116°
近地点 612.419km 612.626km
远地点 626.591km 626.458km
周期 97.093分钟 97.094分钟
每日圈数 14.831163 14.831047
详细信息
使用方式:
暂无
2D轨道图
3D轨道图
轨道高度分析图
轨道倾角分析图
轨道综合分析图
查看轨道综合分析图